Weather History for Chesapeake, VA

Change the Weather History Date:

Friday, June 28, 2013

  Actual Average (KORF) Record (KORF)
Temperature  
Mean Temperature 82 °F 78 °F  
Max Temperature 91 °F 86 °F 101 °F (1880)
Min Temperature 73 °F 70 °F 58 °F (1985)
Degree Days  
Heating Degree Days 0 0  
Month to date heating degree days 4  
Since 1 June heating degree days 4  
Since 1 July heating degree days 3375  
Cooling Degree Days 17 13  
Month to date cooling degree days 286  
Year to date cooling degree days 452  
Since 1 June cooling degree days 286  
Growing Degree Days 32 (Base 50)    
Moisture  
Dew Point 71 °F    
Average Humidity 72    
Maximum Humidity 94    
Minimum Humidity 49    
Precipitation  
Precipitation 0.02 in 0.14 in 2.37 in (1998)
Month to date precipitation 3.97  
Year to date precipitation 20.99  
Snow  
Snow 0.00 in 0.00 in 0.00 in (2002)
Month to date snowfall 0.0  
Since 1 July snowfall 5.8  
Snow Depth -    
Sea Level Pressure  
Sea Level Pressure 29.65 in    
Wind  
Wind Speed 8 mph (SW)    
Max Wind Speed 16 mph    
Max Gust Speed 20 mph    
Visibility 10 miles    
Events Rain , Thunderstorm    
T = Trace of Precipitation, MM = Missing Value Source: NWS Daily Summary

Daily Weather History Graph

Daily Weather History Graph

Search for Another Location

Airport:

Trip Planner

Search our weather history database for the weather conditions in past years. The results will help you decide how hot, cold, wet, or windy it might be!

Date:

Astronomy

Jun. 28, 2013 Rise Set
Actual Time 5:49 AM EDT 8:28 PM EDT
Civil Twilight 5:18 AM EDT 8:58 PM EDT
Nautical Twilight 4:40 AM EDT 9:36 PM EDT
Astronomical Twilight 3:57 AM EDT 10:19 PM EDT
Moon No Moon Rise 11:44 AM EDT (6/28)
Length of Visible Light 15h 40m
Length of Day
14h 38m
Waning Gibbous, 66% of the Moon is Illuminated
Jun 28
Waning Gibbous
Jun 30
Last Quarter
Jul 8
New
Jul 15
First Quarter
Jul 22
Full

Hourly Weather History & Observations

Time (EDT) Temp. Heat Index Dew Point Humidity Pressure Visibility Wind Dir Wind Speed Gust Speed Precip Events Conditions
12:15 AM 75.2 °F - 71.6 °F 89% 29.73 in 10.0 mi SSW 9.2 mph - N/A   Clear
12:35 AM 75.2 °F - 71.6 °F 89% 29.73 in 10.0 mi SSW 6.9 mph - N/A   Light Drizzle
12:55 AM 75.2 °F - 71.6 °F 89% 29.73 in 10.0 mi South 10.4 mph - N/A   Scattered Clouds
1:15 AM 75.2 °F - 71.6 °F 89% 29.72 in 10.0 mi SSW 8.1 mph - N/A   Mostly Cloudy
1:35 AM 75.2 °F - 71.6 °F 89% 29.72 in 10.0 mi SSW 9.2 mph - N/A   Mostly Cloudy
1:55 AM 75.2 °F - 71.6 °F 89% 29.71 in 10.0 mi SSW 10.4 mph - N/A   Scattered Clouds
2:35 AM 75.2 °F - 71.6 °F 89% 29.70 in 10.0 mi SSW 10.4 mph - N/A   Overcast
2:55 AM 75.2 °F - 71.6 °F 89% 29.70 in 10.0 mi SSW 12.7 mph - N/A   Overcast
3:15 AM 75.2 °F - 71.6 °F 89% 29.69 in 10.0 mi SSW 9.2 mph - N/A   Mostly Cloudy
3:35 AM 75.2 °F - 71.6 °F 89% 29.69 in 10.0 mi SSW 6.9 mph - N/A   Overcast
3:55 AM 75.2 °F - 71.6 °F 89% 29.68 in 10.0 mi SSW 9.2 mph - N/A   Overcast
4:15 AM 75.2 °F - 71.6 °F 89% 29.67 in 10.0 mi SSW 9.2 mph - N/A   Overcast
4:35 AM 75.2 °F - 71.6 °F 89% 29.67 in 10.0 mi SSW 8.1 mph - N/A   Overcast
4:55 AM 75.2 °F - 71.6 °F 89% 29.67 in 10.0 mi SSW 6.9 mph - N/A   Overcast
5:15 AM 77.0 °F - 73.4 °F 89% 29.67 in 10.0 mi SSW 6.9 mph - N/A   Overcast
5:35 AM 77.0 °F - 71.6 °F 83% 29.67 in 10.0 mi SW 5.8 mph - N/A   Overcast
5:55 AM 75.2 °F - 71.6 °F 89% 29.67 in 10.0 mi SSW 5.8 mph - N/A   Scattered Clouds
6:15 AM 75.2 °F - 71.6 °F 89% 29.68 in 10.0 mi Calm Calm - N/A   Scattered Clouds
6:35 AM 75.2 °F - 71.6 °F 89% 29.68 in 10.0 mi Calm Calm - N/A   Mostly Cloudy
6:55 AM 75.2 °F - 73.4 °F 94% 29.69 in 10.0 mi South 5.8 mph - N/A   Overcast
7:15 AM 75.2 °F - 73.4 °F 94% 29.70 in 10.0 mi South 4.6 mph - N/A   Overcast
7:35 AM 77.0 °F - 73.4 °F 89% 29.70 in 10.0 mi SSW 9.2 mph - N/A   Overcast
7:55 AM 77.0 °F - 73.4 °F 89% 29.69 in 10.0 mi SSW 6.9 mph - N/A   Overcast
8:55 AM 80.6 °F 85.4 °F 73.4 °F 79% 29.67 in 10.0 mi SW 9.2 mph - N/A   Scattered Clouds
9:15 AM 82.4 °F 88.2 °F 73.4 °F 74% 29.66 in 10.0 mi WSW 8.1 mph - N/A   Scattered Clouds
9:35 AM 82.4 °F 88.2 °F 73.4 °F 74% 29.66 in 10.0 mi SW 8.1 mph 16.1 mph N/A   Scattered Clouds
9:55 AM 82.4 °F 88.2 °F 73.4 °F 74% 29.66 in 10.0 mi SW 10.4 mph - N/A   Scattered Clouds
10:15 AM 84.2 °F 90.9 °F 73.4 °F 70% 29.67 in 10.0 mi SSW 12.7 mph 16.1 mph N/A   Clear
10:35 AM 84.2 °F 90.9 °F 73.4 °F 70% 29.66 in 10.0 mi SW 6.9 mph - N/A   Scattered Clouds
10:55 AM 84.2 °F 90.9 °F 73.4 °F 70% 29.66 in 10.0 mi SSW 9.2 mph - N/A   Scattered Clouds
11:15 AM 86.0 °F 93.4 °F 73.4 °F 66% 29.66 in 10.0 mi SW 10.4 mph 16.1 mph N/A   Clear
11:35 AM 87.8 °F 95.6 °F 73.4 °F 62% 29.66 in 10.0 mi SW 9.2 mph - N/A   Unknown
11:55 AM 87.8 °F 93.8 °F 71.6 °F 58% 29.66 in 10.0 mi West 8.1 mph - N/A   Scattered Clouds
12:15 PM 89.6 °F 96.2 °F 71.6 °F 55% 29.66 in 10.0 mi SW 10.4 mph - N/A   Clear
12:35 PM 89.6 °F 96.2 °F 71.6 °F 55% 29.65 in 10.0 mi WSW 11.5 mph - N/A   Scattered Clouds
12:55 PM 89.6 °F 96.2 °F 71.6 °F 55% 29.65 in 10.0 mi WSW 15.0 mph - N/A   Scattered Clouds
1:15 PM 89.6 °F 96.2 °F 71.6 °F 55% 29.64 in 10.0 mi WSW 11.5 mph 17.3 mph N/A   Scattered Clouds
1:35 PM 89.6 °F 96.2 °F 71.6 °F 55% 29.64 in 10.0 mi WSW 8.1 mph - N/A   Scattered Clouds
1:55 PM 89.6 °F 96.2 °F 71.6 °F 55% 29.63 in 10.0 mi WSW 9.2 mph - N/A   Scattered Clouds
2:15 PM 91.4 °F 98.4 °F 71.6 °F 52% 29.62 in 10.0 mi WSW 11.5 mph - N/A   Scattered Clouds
2:35 PM 91.4 °F 98.4 °F 71.6 °F 52% 29.62 in 10.0 mi SW 9.2 mph - N/A   Scattered Clouds
2:55 PM 91.4 °F 96.8 °F 69.8 °F 49% 29.61 in 10.0 mi SW 8.1 mph - N/A   Mostly Cloudy
3:15 PM 91.4 °F 96.8 °F 69.8 °F 49% 29.61 in 10.0 mi SW 10.4 mph - N/A   Scattered Clouds
3:35 PM 91.4 °F 96.8 °F 69.8 °F 49% 29.60 in 10.0 mi West 9.2 mph - N/A   Clear
3:55 PM 91.4 °F 96.8 °F 69.8 °F 49% 29.60 in 10.0 mi SW 10.4 mph - N/A   Scattered Clouds
4:15 PM 91.4 °F 96.8 °F 69.8 °F 49% 29.59 in 10.0 mi Calm Calm - N/A   Clear
4:35 PM 91.4 °F 96.8 °F 69.8 °F 49% 29.58 in 10.0 mi SSW 8.1 mph - N/A   Clear
4:55 PM 91.4 °F 96.8 °F 69.8 °F 49% 29.58 in 10.0 mi SW 3.5 mph 16.1 mph N/A   Clear
5:15 PM 91.4 °F 96.8 °F 69.8 °F 49% 29.58 in 10.0 mi South 10.4 mph - N/A   Scattered Clouds
5:35 PM 89.6 °F 94.7 °F 69.8 °F 52% 29.58 in 10.0 mi Calm Calm - N/A   Scattered Clouds
5:55 PM 89.6 °F 96.2 °F 71.6 °F 55% 29.59 in 10.0 mi Calm Calm - N/A Thunderstorm Clear
6:15 PM 87.8 °F 93.8 °F 71.6 °F 58% 29.58 in 10.0 mi SSW 4.6 mph - N/A   Scattered Clouds
6:35 PM 87.8 °F 93.8 °F 71.6 °F 58% 29.57 in 10.0 mi Calm Calm - N/A   Clear
6:55 PM 87.8 °F 93.8 °F 71.6 °F 58% 29.60 in 10.0 mi Calm Calm - N/A   Clear
7:15 PM 86.0 °F 91.8 °F 71.6 °F 62% 29.60 in 10.0 mi Calm Calm - N/A   Clear
7:35 PM 84.2 °F 89.6 °F 71.6 °F 66% 29.59 in 10.0 mi Calm Calm - N/A   Clear
7:55 PM 84.2 °F 89.6 °F 71.6 °F 66% 29.60 in 10.0 mi Calm Calm - N/A   Clear
8:15 PM 84.2 °F 90.9 °F 73.4 °F 70% 29.61 in 10.0 mi Calm Calm - N/A Rain Light Rain
8:35 PM 82.4 °F 88.2 °F 73.4 °F 74% 29.60 in 10.0 mi South 4.6 mph - 0.01 in Rain Light Rain
8:55 PM 80.6 °F 85.4 °F 73.4 °F 79% 29.60 in 10.0 mi Calm Calm - N/A Rain , Thunderstorm Light Thunderstorms and Rain
9:15 PM 78.8 °F - 71.6 °F 78% 29.61 in 10.0 mi SW 3.5 mph - 0.01 in Rain Light Rain
9:35 PM 77.0 °F - 69.8 °F 78% 29.60 in 10.0 mi Calm Calm - 0.01 in   Light Drizzle
9:55 PM 75.2 °F - 68.0 °F 78% 29.62 in 10.0 mi Calm Calm - N/A Rain Light Rain
10:15 PM 73.4 °F - 68.0 °F 83% 29.62 in 10.0 mi South 16.1 mph 19.6 mph N/A Rain Light Rain
10:35 PM 73.4 °F - 69.8 °F 88% 29.63 in 10.0 mi SSW 12.7 mph - N/A   Clear
10:55 PM 73.4 °F - 69.8 °F 88% 29.64 in 10.0 mi SW 11.5 mph 18.4 mph N/A   Clear
11:15 PM 75.2 °F - 68.0 °F 78% 29.64 in 10.0 mi SSW 10.4 mph 18.4 mph N/A   Clear
11:35 PM 75.2 °F - 66.2 °F 73% 29.63 in 10.0 mi SSW 5.8 mph 18.4 mph N/A   Clear
11:55 PM 75.2 °F - 66.2 °F 73% 29.62 in 10.0 mi SSW 5.8 mph - N/A   Clear